STARLINK-32874, 62954

Orbit data source: Space-Track

STARLINK-32874, 62954 is a payload satellite owned by SpaceX/Seattle (US) in LEO that was launched on Tue, 11 Feb 2025 UTC via an FALCON 9 launch vehicle from the Air Force Western Test Range (AFWTR). Payload-class satellites include a variety of spacecraft equipped with specific instruments for various scientific and technological missions. These include communications satellites like Starlink; space stations such as the ISS; scientific satellites like the Hubble; Earth observation satellites from companies like Planet Labs, Umbra, and HawkEye 360; GPS; miniature CubeSats for education and research; and military/defense satellites.

Loading next visibility...
Identifier
62954, 2025-029G
Orbit
LEO
Country
Flag of USUS
Related business
Manufacturer
SpaceX/Seattle
Mission
Operational Commercial Communications
Bus & Motor
STARLINK V2M, Unknown motor
Mass
730 kg wet, ~700 kg dry
Launch date (UTC)
2025-02-11 (1 year ago)
Launch vehicle
FALCON 9
Launch site
Air Force Western Test Range (AFWTR)
Object type
Payload
Rocket body
Debris
Shape & HBR
Box + 2 Pan, 17.7 m
Radar Cross Section
33.884 m², Large (>1 m²)

Expand to show TLE details & history
Last TLE update: 1 day ago

TLE from 1 day ago
0 STARLINK-32874
1 62954U 25029G   26170.82783325  .00001402  00000-0  52654-4 0  9991
2 62954  53.1609 114.6144 0000751 115.5385 244.5695 15.34367632 77014
Epoch: 2026-06-19T19:52Z
TLE epoch observation values (Epoch: 2026-06-19T19:52:04.792Z)
Latitude
-0.00006°
Longitude
-91.45683°
Altitude
463.922 km
Speed
7.636 km/s
True Right ascension
07h 38m 27s
True Declination
0° 00' 00"
Sunlit
Object was in daylight at epoch
Visualization orbit readout
Latitude
Unknown
Longitude
Unknown
Altitude
Unknown
Speed
Unknown
Apparent Right ascension
Unknown
Apparent Declination
Unknown
Sunlit
N/A
Visualization observer readout
Local Sidereal Time
07:16:53
Azimuth
Unknown
Elevation
Unknown
Doppler factor
Unknown
Orbital elements
Apogee altitude
463.57 km
Perigee altitude
462.542 km
Semi-major axis
6,841.193 km
Eccentricity
0.00008
Inclination
53.1609°
RAAN
114.6144°
Arg. of periapsis
115.5385°
True anomaly
244.56173°
Mean anomaly
244.5695°
Eccentric anomaly
244.56561°
Mean motion
3.83571 °/min
Orbital period
93.85 mins
BSTAR
0.000052654
Loading maneuver chart data...
Computing Atmospheric mass density...
Loading historical data...
Loading historical data...
Loading historical data...
Loading historical data...
Loading historical data...
Loading historical data...
Loading historical data...

Documentation

Showing up to 5 results
|